Flag for Cambodia Weather past 2 weeks in Battambang, Cambodia

Now
77 °F

Light rain. Partly cloudy.


Feels Like: 78 °F
Forecast: 73 / 84 °F
Wind: 2 mph from Northeast

Location: Siemreap

Current Time: Aug 28, 2014 at 8:18:38 PM

Latest Report: Aug 28, 2014 at 8:00 PM


Visibility: 4 mi

Pressure: 29.74 "Hg

Humidity: 94%

Dew point: 75 °F

Location of BattambangLocation

Historic Weather in Battambang — Graph

°F

Battambang temperature yesterday

Maximum temperature yesterday: 90 °F (at 1:00 PM)
Minimum temperature yesterday: 79 °F (at 12:00 AM)
Average temperature yesterday: 84 °F

Past Weeks' High & Low Weather Summary

 TemperatureHumidityPressure
High93 °F (Aug 17, 2:30 PM)94% (Aug 26, 7:00 AM)29.86 "Hg (Aug 26, 7:00 AM)
Low73 °F (Aug 26, 12:00 PM)49% (Aug 18, 3:00 PM)29.62 "Hg (Aug 24, 4:30 PM)
Average85 °F74%29.75 "Hg
* Reported Aug 13 7:00 PM — Aug 28 7:00 PM, Battambang, Weather by CustomWeather, © 2014

Note: Actual official high and low records may vary slightly from our data, if they occured in-between our weather recording intervals... More about our weather records

Advertising

Battambang weather history for previous 24 hours

 ConditionsComfort  
Time TempWeatherWind HumidityBarometerVisibility
7:00 PM
Aug 28
77 °FLight rain. Partly cloudy.7 mph94%29.74 "Hg4 mi
6:30 PM77 °FLight rain. Mostly cloudy.2 mph94%29.71 "Hg4 mi
6:00 PM77 °FHeavy rain. Mostly cloudy.1 mph89%29.68 "Hg4 mi
5:30 PM77 °FHeavy rain. Mostly cloudy.6 mph89%29.68 "Hg3 mi
5:00 PM77 °FHeavy rain. Mostly cloudy.9 mph89%29.68 "Hg1 mi
4:30 PM77 °FHeavy rain. Mostly cloudy.12 mph94%29.68 "Hg1 mi
4:00 PM79 °FBroken clouds.13 mph84%29.65 "HgN/A
3:30 PM84 °FScattered clouds.3 mph74%29.65 "HgN/A
3:00 PM84 °FScattered clouds.2 mph74%29.65 "HgN/A
2:30 PM82 °FScattered clouds.3 mph79%29.65 "HgN/A
2:00 PM81 °FScattered clouds.5 mph79%29.65 "HgN/A
1:30 PM82 °FScattered clouds.5 mph79%29.65 "HgN/A
1:00 PM84 °FScattered clouds.1 mph74%29.68 "HgN/A
12:30 PM84 °FScattered clouds.3 mph74%29.68 "HgN/A
12:00 PM88 °FScattered clouds.5 mph66%29.71 "HgN/A
11:30 AM88 °FScattered clouds.6 mph66%29.71 "HgN/A
11:00 AM88 °FScattered clouds.2 mph66%29.71 "HgN/A
10:30 AM86 °FScattered clouds.3 mph70%29.74 "HgN/A
9:30 AM84 °FScattered clouds.1 mph74%29.74 "HgN/A
9:00 AM82 °FScattered clouds.1 mph79%29.74 "HgN/A
8:30 AM81 °FWarm.N/A84%29.74 "HgN/A
8:00 AM81 °FScattered clouds.1 mph89%29.74 "HgN/A
7:30 AM79 °FScattered clouds.2 mph94%29.71 "HgN/A
7:00 AM79 °FScattered clouds.1 mph94%29.71 "Hg6 mi
1:00 AM77 °FPassing clouds.3 mph94%29.71 "Hg6 mi
12:30 AM77 °FPassing clouds.5 mph94%29.71 "Hg6 mi
12:00 AM79 °FPassing clouds.7 mph94%29.74 "Hg6 mi
11:00 PM
Aug 27
79 °FThunderstorms. Passing clouds.5 mph94%29.74 "Hg5 mi
10:00 PM79 °FThunderstorms. Passing clouds.2 mph94%29.74 "Hg5 mi
9:30 PM79 °FThunderstorms. Passing clouds.3 mph94%29.74 "Hg4 mi
9:00 PM79 °FThunderstorms. Passing clouds.7 mph89%29.71 "Hg4 mi
8:30 PM79 °FThunderstorms. Passing clouds.10 mph89%29.71 "Hg4 mi
8:00 PM82 °FPassing clouds.12 mph79%29.68 "HgN/A
Weather by CustomWeather, © 2014

See weather overviewHow to use our weather pages